Regional Weather Roundup
Issued by NWS

Home | Current Version | Previous Version | Graphics & Text | Print | Product List | Glossary On
Versions: 1 2 3 4 5 6 7 8 9 10 11 12 13 14 15 16 17 18 19 20 21 22 23 24 25 26 27 28 29 30 31 32 33 34 35 36 37 38 39 40 41 42 43 44 45 46 47 48 49 50
000
ASUS43 KMPX 282110
RWRMN
WEATHER ROUNDUP FOR MINNESOTA
NATIONAL WEATHER SERVICE TWIN CITIES/CHANHASSEN MN
400 PM CDT FRI APR 28 2017


NOTE: "FAIR" INDICATES FEW OR NO CLOUDS BELOW 12,000 FEET WITH NO
SIGNIFICANT WEATHER AND/OR OBSTRUCTIONS TO VISIBILITY. N/A MEANS
CURRENT SKY AND/OR WEATHER CONDITIONS ARE NOT AVAILABLE.

MNZ060>063-068>070-282200-
   Twin Cities Metro

CITY           SKY/WX    TMP DP  RH WIND       PRES   REMARKS
TWIN CITIES    CLOUDY    51  29  42 VRB6      29.95S
ST PAUL        CLOUDY    49  29  46 N6        29.96S
CRYSTAL        CLOUDY    50  28  42 VRB3      29.95R
BLAINE         PTSUNNY   50  30  46 NW7       29.95S
LAKEVILLE      MOSUNNY   46  30  53 NE3       29.94F
EDEN PRAIRIE   MOSUNNY   50  29  44 N9        29.94R
SOUTH ST PAUL  CLOUDY    48  28  45 CALM      29.95S
LAKE ELMO      FAIR      46  32  57 N7        29.96S
$$
MNZ001>005-007-008-013>017-022>024-027-028-282200-
   Northwest Minnesota

CITY           SKY/WX    TMP DP  RH WIND       PRES   REMARKS
BEMIDJI        SUNNY     46  16  29 NW15      29.97R
HALLOCK        SUNNY     55   5  13 N12G25    30.00S
ROSEAU         SUNNY     48  18  29 N7        30.00R
WARROAD        SUNNY     46  19  34 NW6       30.00R
THIEF RVR FALL SUNNY     49  12  22 N16       30.01R
CROOKSTON      SUNNY     52  25  35 N13G18    30.01S
FOSSTON        SUNNY     48  23  37 N14G20    30.00R
DETROIT LAKES  SUNNY     48  23  37 N12G25    30.00R
MOORHEAD       SUNNY     52  25  35 N18       30.02R
PARK RAPIDS    SUNNY     50   9  19 N15G22    29.95R
MAHNOMEN       FAIR      48  25  40 N10G24    29.99S
$$
MNZ006-009>011-018-025>026-282200-
   North Central Minnesota

CITY           SKY/WX    TMP DP  RH WIND       PRES   REMARKS
BAUDETTE       SUNNY     46  24  42 NW17G23   29.97R
FLAG ISLAND    SUNNY     43  21  42 NW14      29.98R
INTL FALLS     CLOUDY    41  25  53 N12       29.96R
WASKISH        MOSUNNY   46  27  46 N14G22    29.97R
BIG FORK       PTSUNNY   48  25  40 N9        29.94R
LONGVILLE      SUNNY     48  18  29 NW12G21   29.94S
GRAND RAPIDS   MOSUNNY   48  25  40 NW21      29.94R
CRANE LAKE     CLOUDY    36  27  69 N9        29.97R
ORR            PTSUNNY   41  21  45 NW9       29.92R
COOK           MOSUNNY   43  25  49 N12G20    29.94R
WALKER         FAIR      46  12  25 NW13G21   29.96R
$$
MNZ012-019>021-037-282200-
   Northeast Minnesota

CITY           SKY/WX    TMP DP  RH WIND       PRES   REMARKS
DULUTH         CLOUDY    48  26  42 NW13      29.89S
ELY            SUNNY     39  25  56 NW15G21   29.92R
HIBBING        MOSUNNY   46  28  49 NW16G23   29.91R
EVELETH        MOSUNNY   45  16  31 NW16G23   29.92R
DULUTH HARBOR  CLOUDY    50  27  40 W8        29.92S
TWO HARBORS    PTSUNNY   50  30  46 W8        29.88S
SILVER BAY     PTSUNNY   45  27  49 NW9       29.89R
GRAND MARAIS     N/A     39  29  67 VRB7      29.90R
G MARAIS ARPRT CLOUDY    30  21  69 CALM      29.86R
$$
MNZ029>031-032-039>041-046>048-054>057-064-282200-
   West Central Minnesota

CITY           SKY/WX    TMP DP  RH WIND       PRES   REMARKS
FERGUS FALLS   SUNNY     52  27  37 N12G23    29.99R
WHEATON        CLOUDY    50  21  32 N15       30.03S
MORRIS         CLOUDY    52  21  30 N12G23    29.98S
ALEXANDRIA     CLOUDY    50  23  34 N14       29.98R
ELBOW LAKE     FAIR      48  24  38 NW10G17   30.00S
WADENA         SUNNY     48  21  34 N15       29.96R
GLENWOOD       CLOUDY    50  21  32 NW8       29.98S
APPLETON       CLOUDY    52  19  28 NE16      29.98S
BENSON         CLOUDY    54   5  14 E10G21    29.99S
ORTONVILLE     CLOUDY    50  25  37 N15       29.99F
MADISON        CLOUDY    54  27  35 N15G21    29.98S
WILLMAR        FAIR      52  28  40 N9        29.98R
$$
MNZ033>034-036-042>043-049>051-058-059-282200-
   Central Minnesota

CITY           SKY/WX    TMP DP  RH WIND       PRES   REMARKS
ST CLOUD       CLOUDY    49  27  42 N7        29.95F
SAUK CENTRE    FAIR      49  23  36 N8        29.97S
PAYNESVILLE    CLOUDY    49  24  37 N10       29.97S
AITKIN         SUNNY     54  18  24 NW12G17   29.92S
PINE RIVER     SUNNY     48  23  37 NW10      29.98R
BRAINERD       CLOUDY    50  19  29 N10G21    29.95R
STAPLES        CLOUDY    52  12  20 N12G22    29.95R
LONG PRAIRIE   FAIR      48  23  37 NW8       29.97R
LITTLE FALLS   MOSUNNY   50  18  27 NW9       29.96R
LITCHFIELD     CLOUDY    48  30  49 VRB9      29.96S
BUFFALO        CLOUDY    48  28  45 NE5       29.97R
MAPLE LAKE     CLOUDY    50  30  45 N10       29.97R
HUTCHINSON     SUNNY     51  34  52 N5        29.97R
$$
MNZ037-044-045-052-053-282200-
   East Central Minnesota

CITY           SKY/WX    TMP DP  RH WIND       PRES   REMARKS
PRINCETON      CLOUDY    52  28  40 N12G17    29.95S
MORA           CLOUDY    46  28  49 NW6       29.97S
CAMBRIDGE      CLOUDY    48  30  49 N8        29.94R
RUSH CITY      CLOUDY    47  29  47 CALM      29.95R
MOOSE LAKE     CLOUDY    52  27  37 N9        29.91R
HINCKLEY       FAIR      50  30  46 W8        29.94S
CLOQUET        CLOUDY    48  18  29 NW10G21   29.91R
MCGREGOR       CLOUDY    50  27  40 NW15G22   29.93R
$$
MNZ071>073-080-081-089-090-097-098-282200-
   Southwest Minnesota

CITY           SKY/WX    TMP DP  RH WIND       PRES   REMARKS
MONTEVIDEO     CLOUDY    52  23  32 NE15G21   29.97S
GRANITE FALLS  CLOUDY    54  31  41 N10G20    29.98S
CANBY          CLOUDY    53  25  33 NE13G18   29.98S
MARSHALL       CLOUDY    50  30  46 NE17G23   29.95F
REDWOOD FALLS  MOSUNNY   50  27  40 N15G23    29.95F
OLIVIA         CLOUDY    50  30  46 N13G18    29.96S
PIPESTONE      CLOUDY    46  27  46 E12G18    29.94R
WINDOM         CLOUDY    46  30  53 N15G22    29.93F
WORTHINGTON    MOSUNNY   44  30  57 N16G25    29.93R
JACKSON        CLOUDY    45  32  61 NE15G21   29.93R
TRACY          CLOUDY    49  33  56 NE14G22   29.95F
SLAYTON        CLOUDY    44  32  61 N13       29.94F
$$
MNZ065>067-074>077-082>085-091>093-282200-
   South Central Minnesota

CITY           SKY/WX    TMP DP  RH WIND       PRES   REMARKS
MANKATO        CLOUDY    46  30  53 N12       29.93F
NEW ULM        PTSUNNY   46  30  53 NE7       29.94F
ST JAMES       MOSUNNY   46  32  57 N10       29.95S
FAIRMONT       CLOUDY    46  33  60 NE15      29.93S
GLENCOE        MOSUNNY   49  35  58 N12       29.95S
FARIBAULT      MOSUNNY   46  30  53 N6        29.93F
OWATONNA       CLOUDY    46  30  53 NE6       29.93F
WASECA         CLOUDY    45  32  61 N6        29.94F
ALBERT LEA     CLOUDY    45  32  61 NE9       29.91F
$$
MNZ078>079-086>088-094>096-282200-
   Southeast Minnesota

CITY           SKY/WX    TMP DP  RH WIND       PRES   REMARKS
ROCHESTER      CLOUDY    46  34  62 N8        29.91F
RED WING       CLOUDY    48  25  40 CALM      29.94S
STANTON        CLOUDY    48  30  50 NE3       29.93F
DODGE CENTER   CLOUDY    45  30  57 N8        29.92F
WINONA         MOSUNNY   48  34  57 N3        29.94F
AUSTIN         CLOUDY    45  34  65 N8        29.91F
PRESTON        CLOUDY    43  32  65 NE8       29.91F
$$
ABBREVIATIONS USED IN REMARKS
   TC - TEMPERATURES IN CELSIUS
  WCI - WIND CHILL INDEX
   HX - HEAT INDEX
  VSB - VISIBILITY
$$



USA.gov is the U.S. government's official web portal to all federal, state and local government web resources and services.